Regional & State Weather Roundups


428 
ASUS41 KCLE 261500
RWRCLE
OHIO REGIONAL WEATHER ROUNDUP
NATIONAL WEATHER SERVICE WILMINGTON, OH
1100 AM EDT WED SEP 26 2018
NOTE: "FAIR" INDICATES FEW OR NO CLOUDS BELOW 12,000 FEET WITH NO
SIGNIFICANT WEATHER AND/OR OBSTRUCTIONS TO VISIBILITY.
OHZ001>008-015>018-024>027-034-035-043-044-261600-
   NORTHWEST OHIO
  
CITY           SKY/WX    TMP DP  RH WIND       PRES   REMARKS
DEFIANCE       FAIR      62  52  69 NW16G25   30.03R                  
FINDLAY        CLOUDY    64  56  75 NW13G23   30.01R                  
TOLEDO EXPRESS FAIR      64  51  62 W14G21    30.00R                  
TOLEDO EXEC    FAIR      66  53  63 NW20G25   30.00R                  
LIMA           CLOUDY    62  55  77 NW15G22   30.03R                  
$$
 
OHZ009>014-019>023-028>033-038-089-261600-
   NORTHEAST OHIO
  
CITY           SKY/WX    TMP DP  RH WIND       PRES   REMARKS
CLE-HOPKINS    LGT RAIN  67  62  84 W12       29.98R                  
CLE-LAKEFRONT  CLOUDY    68  61  78 W17       29.94R                  
CUY CO. ARPT   CLOUDY    68 N/A N/A NW21      29.95R                  
LORAIN-ELYRIA  CLOUDY    64  55  72 NW12G23   29.97R                  
ASHTABULA      CLOUDY    67  67 100 W7        29.93S FOG              
AKRON-CANTON   CLOUDY    69  64  84 W8        29.95R                  
WOOSTER        CLOUDY    66  64  93 NW13      29.97R                  
MANSFIELD      CLOUDY    65  62  90 VRB7      29.99R                  
YOUNGSTOWN     CLOUDY    68  66  93 NW8       29.94R                  
$$
 
OHZ042-051>053-060>062-070>072-077>081-261600-
  SOUTHWEST OHIO
  
CITY           SKY/WX    TMP DP  RH WIND       PRES   REMARKS
CINC-COVINGTON CLOUDY    72  65  78 NW12      30.03R                  
CINC-LUNKEN    CLOUDY    72  67  84 VRB6      30.02R                  
HAMILTON       FAIR      70  64  81 NW14      30.03R                  
DAYTON         CLOUDY    66  62  87 NW10      30.04R                  
WRIGHT-PAT AFB PTSUNNY   68  62  83 NW12      30.02R                  
DAYTON GENERAL PTSUNNY   68  61  78 NW14G22   30.03R                  
WILMINGTON     CLOUDY    69  67  93 NW10      30.01R                  
$$
OHZ036-037-039>041-045>050-054>059-063>069-073>076-082>088-261600-
  CENTRAL AND SOUTHEAST OHIO
  
CITY           SKY/WX    TMP DP  RH WIND       PRES   REMARKS
COLUMBUS       CLOUDY    71  66  84 W9        29.98S                  
OSU AIRPORT    PTSUNNY   71  66  84 NW9       29.98S                  
BOLTON FIELD   PTSUNNY   72  66  83 SW6       29.99S                  
RICKENBACK AFB NOT AVBL                                               
NEWARK         CLOUDY    71  68  90 W7        29.97S                  
MARION         CLOUDY    64  57  78 NW13      30.01R                  
LANCASTER      CLOUDY    69  68  96 W7        29.99S                  
ZANESVILLE     CLOUDY    71  67  87 W7        29.98R                  
NEW PHILLY     CLOUDY    71  67  87 W8        29.96S                  
$$